Zurück zum Katalog

STARLINK-36997

AktivKommunikationVLEO
NORAD 68248·PAYLOAD·🇺🇸 United States

Gestartet Mar 17, 2026 von Vandenberg Space Force Base

Loading…

Nächste Überflüge (nächste 24 Stunden)

TLE

AktuellSource: CelesTrak SupGP

Epoche: Sep 15, 2026, 04:03 UTC

1 68248C 26054S   26258.16923611  .00035178  00000+0  10395-2 0  2588
2 68248  53.1556 134.3879 0001194  87.7073 358.3191 15.34369769    11

Verfolge STARLINK-36997 in Echtzeit mit AllMySat

Download on the App Store